When you browse on this site, cookies collect data to enhance your experience and personalize the content and advertising you see.
Visit our Privacy Policy to learn more. By continuing to use the site, you agree to this use of cookies and data.
  • In Belgien
  • Länderverzeichnis
  • Für 7 Tage
  • Wassertemperatur
  • Satellitenkarten
  • Wetterkarte
  • Widgets
  • user-avatar
    Anmelden

    Stündliche Wetter Kortrijk

    Heute, 23 Februar, Samstag

    Zeit Temperatur Niederschläge Wind Luftdruck Luftfeuchtigkeit
    00:00 +7°C° 0 mm 3 m/S 774 mmHg 92%
    01:00 +7°C° 0 mm 3 m/S 774 mmHg 92%
    02:00 +7°C° 0 mm 3 m/S 774 mmHg 92%
    03:00 +7°C° 0 mm 3 m/S 773 mmHg 92%
    04:00 +7°C° 0 mm 3 m/S 774 mmHg 91%
    05:00 +5°C° 0 mm 3 m/S 774 mmHg 91%
    06:00 +6°C° 0 mm 2 m/S 774 mmHg 90%
    07:00 +7°C° 0 mm 3 m/S 774 mmHg 86%
    08:00 +7°C° 0 mm 3 m/S 774 mmHg 82%
    09:00 +8°C° 0 mm 3 m/S 773 mmHg 78%
    10:00 +10°C° 0 mm 3 m/S 773 mmHg 72%
    11:00 +11°C° 0 mm 3 m/S 773 mmHg 65%
    12:00 +13°C° 0 mm 3 m/S 773 mmHg 59%
    13:00 +13°C° 0 mm 3 m/S 773 mmHg 57%
    14:00 +14°C° 0 mm 2 m/S 773 mmHg 55%
    15:00 +15°C° 0 mm 2 m/S 773 mmHg 53%
    16:00 +13°C° 0 mm 2 m/S 773 mmHg 58%
    17:00 +12°C° 0 mm 2 m/S 773 mmHg 63%
    18:00 +10°C° 0 mm 2 m/S 773 mmHg 68%
    19:00 +9°C° 0 mm 2 m/S 773 mmHg 68%
    20:00 +8°C° 0 mm 2 m/S 773 mmHg 67%
    21:00 +8°C° 0 mm 2 m/S 773 mmHg 67%
    22:00 +7°C° 0 mm 2 m/S 774 mmHg 64%
    23:00 +7°C° 0 mm 2 m/S 774 mmHg 62%

    Morgen, 24 Februar, Sonntag

    Zeit Temperatur Niederschläge Wind Luftdruck Luftfeuchtigkeit
    00:00 +6°C° 0 mm 2 m/S 774 mmHg 60%
    01:00 +5°C° 0 mm 2 m/S 774 mmHg 58%
    02:00 +6°C° 0 mm 1 m/S 774 mmHg 55%
    03:00 +6°C° 0 mm 1 m/S 774 mmHg 53%
    04:00 +5°C° 0 mm 1 m/S 774 mmHg 51%
    05:00 +5°C° 0 mm 1 m/S 774 mmHg 49%
    06:00 +5°C° 0 mm 1 m/S 774 mmHg 47%
    07:00 +6°C° 0 mm 1 m/S 774 mmHg 46%
    08:00 +6°C° 0 mm 2 m/S 774 mmHg 44%
    09:00 +7°C° 0 mm 2 m/S 775 mmHg 42%
    10:00 +9°C° 0 mm 2 m/S 775 mmHg 38%
    11:00 +11°C° 0 mm 1 m/S 775 mmHg 34%
    12:00 +13°C° 0 mm 1 m/S 775 mmHg 29%
    13:00 +13°C° 0 mm 1 m/S 775 mmHg 31%
    14:00 +14°C° 0 mm 2 m/S 774 mmHg 32%
    15:00 +15°C° 0 mm 2 m/S 774 mmHg 34%
    16:00 +13°C° 0 mm 2 m/S 774 mmHg 38%
    17:00 +12°C° 0 mm 2 m/S 774 mmHg 42%
    18:00 +9°C° 0 mm 2 m/S 775 mmHg 46%
    19:00 +9°C° 0 mm 2 m/S 775 mmHg 47%
    20:00 +8°C° 0 mm 2 m/S 775 mmHg 48%
    21:00 +8°C° 0 mm 2 m/S 775 mmHg 49%
    22:00 +7°C° 0 mm 2 m/S 775 mmHg 51%
    23:00 +8°C° 0 mm 1 m/S 775 mmHg 53%

    übermorgen, 25 Februar, Montag

    Zeit Temperatur Niederschläge Wind Luftdruck Luftfeuchtigkeit
    00:00 +8°C° 0 mm 1 m/S 775 mmHg 55%
    01:00 +7°C° 0 mm 1 m/S 775 mmHg 56%
    02:00 +7°C° 0 mm 1 m/S 775 mmHg 57%
    03:00 +7°C° 0 mm 1 m/S 775 mmHg 58%
    04:00 +7°C° 0 mm 1 m/S 775 mmHg 58%
    05:00 +6°C° 0 mm 1 m/S 775 mmHg 57%
    06:00 +6°C° 0 mm 1 m/S 775 mmHg 57%
    07:00 +7°C° 0 mm 1 m/S 776 mmHg 56%
    08:00 +8°C° 0 mm 1 m/S 776 mmHg 55%
    09:00 +8°C° 0 mm 2 m/S 776 mmHg 54%
    10:00 +10°C° 0 mm 2 m/S 776 mmHg 50%
    11:00 +13°C° 0 mm 2 m/S 776 mmHg 45%
    12:00 +14°C° 0 mm 2 m/S 775 mmHg 41%
    13:00 +15°C° 0 mm 2 m/S 775 mmHg 42%
    14:00 +16°C° 0 mm 1 m/S 775 mmHg 42%
    15:00 +16°C° 0 mm 1 m/S 774 mmHg 42%
    16:00 +15°C° 0 mm 2 m/S 774 mmHg 47%
    17:00 +13°C° 0 mm 2 m/S 774 mmHg 52%
    18:00 +10°C° 0 mm 2 m/S 775 mmHg 57%
    19:00 +10°C° 0 mm 2 m/S 775 mmHg 58%
    20:00 +9°C° 0 mm 2 m/S 775 mmHg 60%
    21:00 +9°C° 0 mm 2 m/S 775 mmHg 62%
    22:00 +8°C° 0 mm 2 m/S 774 mmHg 64%
    23:00 +8°C° 0 mm 2 m/S 774 mmHg 67%

    26 Februar, Dienstag

    Zeit Temperatur Niederschläge Wind Luftdruck Luftfeuchtigkeit
    00:00 +8°C° 0 mm 2 m/S 774 mmHg 69%
    01:00 +9°C° 0 mm 1 m/S 774 mmHg 71%
    02:00 +8°C° 0 mm 1 m/S 774 mmHg 73%
    03:00 +8°C° 0 mm 1 m/S 773 mmHg 75%
    04:00 +8°C° 0 mm 1 m/S 773 mmHg 76%
    05:00 +8°C° 0 mm 1 m/S 773 mmHg 76%
    06:00 +7°C° 0 mm 1 m/S 773 mmHg 76%
    07:00 +9°C° 0 mm 1 m/S 773 mmHg 72%
    08:00 +10°C° 0 mm 1 m/S 773 mmHg 68%
    09:00 +11°C° 0 mm 1 m/S 773 mmHg 64%
    10:00 +13°C° 0 mm 1 m/S 773 mmHg 59%
    11:00 +14°C° 0 mm 1 m/S 773 mmHg 54%
    12:00 +16°C° 0 mm 1 m/S 773 mmHg 49%
    13:00 +16°C° 0 mm 1 m/S 773 mmHg 49%
    14:00 +17°C° 0 mm 2 m/S 772 mmHg 49%
    15:00 +17°C° 0 mm 2 m/S 772 mmHg 48%
    16:00 +16°C° 0 mm 2 m/S 772 mmHg 54%
    17:00 +14°C° 0 mm 2 m/S 772 mmHg 59%
    18:00 +13°C° 0 mm 2 m/S 771 mmHg 64%
    19:00 +12°C° 0 mm 2 m/S 771 mmHg 66%
    20:00 +10°C° 0 mm 2 m/S 771 mmHg 67%
    21:00 +10°C° 0 mm 2 m/S 771 mmHg 69%
    22:00 +9°C° 0 mm 2 m/S 771 mmHg 71%
    23:00 +9°C° 0 mm 2 m/S 771 mmHg 73%

    27 Februar, Mittwoch

    Zeit Temperatur Niederschläge Wind Luftdruck Luftfeuchtigkeit
    00:00 +9°C° 0 mm 2 m/S 771 mmHg 74%
    01:00 +8°C° 0 mm 2 m/S 770 mmHg 75%
    02:00 +8°C° 0 mm 2 m/S 770 mmHg 76%
    03:00 +8°C° 0 mm 2 m/S 770 mmHg 77%
    04:00 +7°C° 0 mm 2 m/S 769 mmHg 77%
    05:00 +7°C° 0 mm 2 m/S 769 mmHg 78%
    06:00 +6°C° 0 mm 2 m/S 769 mmHg 78%
    07:00 +7°C° 0 mm 2 m/S 769 mmHg 75%
    08:00 +8°C° 0 mm 2 m/S 769 mmHg 71%
    09:00 +9°C° 0 mm 3 m/S 768 mmHg 68%
    10:00 +11°C° 0 mm 3 m/S 768 mmHg 64%
    11:00 +12°C° 0 mm 3 m/S 768 mmHg 60%
    12:00 +14°C° 0 mm 3 m/S 768 mmHg 56%
    13:00 +16°C° 0 mm 3 m/S 767 mmHg 56%
    14:00 +16°C° 0 mm 3 m/S 767 mmHg 56%
    15:00 +17°C° 0 mm 3 m/S 766 mmHg 56%
    16:00 +14°C° 0 mm 3 m/S 766 mmHg 63%
    17:00 +13°C° 0 mm 3 m/S 766 mmHg 70%
    18:00 +12°C° 0 mm 2 m/S 766 mmHg 78%
    19:00 +10°C° 0 mm 3 m/S 766 mmHg 81%
    20:00 +10°C° 0 mm 3 m/S 766 mmHg 84%
    21:00 +9°C° 0 mm 3 m/S 766 mmHg 87%
    22:00 +8°C° 0 mm 4 m/S 766 mmHg 88%
    23:00 +7°C° 0 mm 4 m/S 766 mmHg 89%

    28 Februar, Donnerstag

    Zeit Temperatur Niederschläge Wind Luftdruck Luftfeuchtigkeit
    00:00 +7°C° 0 mm 4 m/S 765 mmHg 90%
    01:00 +7°C° 0 mm 4 m/S 765 mmHg 91%
    02:00 +7°C° 0 mm 4 m/S 765 mmHg 92%
    03:00 +7°C° 0 mm 4 m/S 765 mmHg 93%
    04:00 +7°C° 0 mm 4 m/S 765 mmHg 93%
    05:00 +7°C° 0 mm 4 m/S 765 mmHg 93%
    06:00 +7°C° 0 mm 4 m/S 766 mmHg 94%
    07:00 +7°C° 0 mm 4 m/S 766 mmHg 90%
    08:00 +8°C° 0 mm 5 m/S 766 mmHg 87%
    09:00 +9°C° 0 mm 5 m/S 767 mmHg 84%
    10:00 +10°C° 0 mm 5 m/S 767 mmHg 81%
    11:00 +10°C° 0 mm 5 m/S 767 mmHg 77%
    12:00 +12°C° 0 mm 5 m/S 768 mmHg 74%
    13:00 +12°C° 0 mm 5 m/S 768 mmHg 72%
    14:00 +12°C° 0 mm 4 m/S 768 mmHg 71%
    15:00 +12°C° 0 mm 4 m/S 768 mmHg 70%
    16:00 +11°C° 0 mm 3 m/S 768 mmHg 74%
    17:00 +10°C° 0 mm 2 m/S 768 mmHg 79%
    18:00 +9°C° 0 mm 2 m/S 768 mmHg 84%
    19:00 +9°C° 0 mm 2 m/S 769 mmHg 85%
    20:00 +8°C° 0 mm 2 m/S 769 mmHg 87%
    21:00 +9°C° 0 mm 1 m/S 769 mmHg 89%
    22:00 +8°C° 0 mm 2 m/S 769 mmHg 87%
    23:00 +8°C° 0 mm 2 m/S 769 mmHg 86%
    Mehr zeigen